Weather Service Report


855 
ASUS44 KLIX 171610
RWRLIX
NEW ORLEANS REGIONAL WEATHER ROUNDUP
NATIONAL WEATHER SERVICE NEW ORLEANS LA
1100 AM CDT THU APR 17 2014

NOTE: "FAIR" INDICATES FEW OR NO CLOUDS BELOW 12,000 FEET WITH NO
      SIGNIFICANT WEATHER AND/OR OBSTRUCTIONS TO VISIBILITY.
      SKY/WX - SKY CONDITION AND SIGNIFICANT WEATHER.
      TMP - AIR TEMPERATURE.     DP    - DEWPOINT TEMPERATURE.
      RH  - RELATIVE HUMIDITY.   PRES  - PRESSURE.
      HI  - HEAT INDEX.          WCI   - WIND CHILL INDEX.

*  THESE STATIONS ARE NOT NWS OR FAA STATIONS AND ARE NOT UNDER
   NWS QUALITY CONTROL. 

LAZ038-040-048-061>063-065>067-069-171700-
SOUTHEAST LOUISIANA
  
CITY           SKY/WX    TMP DP  RH WIND       PRES   REMARKS
N.O. AUDUBON     N/A     67  55  65 MISG        N/A                   
N.O. INTL ARPT CLOUDY    63  55  75 NE9       30.21R                  
N.O. LAKEFRONT CLOUDY    62  55  77 E10       30.21R                  
N.O. DOWNTOWN* CLOUDY    63  52  67 E3        30.21R                  
SLIDELL        CLOUDY    65  54  67 E8        30.19S                  
BATON ROUGE    PTSUNNY   65  51  60 NE10      30.20R                  
BOOTHVILLE     MOSUNNY   69  63  81 NE8       30.17R                  
BELLE CHASSE   PTSUNNY   65  57  75 NE13      30.20R                  
BOGALUSA*        N/A     64  52  66 E9        30.22S                  
GALLIANO*      CLOUDY    67  59  75 N12       30.18R                  
NEW ROADS*     CLOUDY    62  51  66 E10G17    30.21R                  
GONZALES*      CLOUDY    64  54  70 E7        30.20R                  
HAMMOND*       CLOUDY    64  52  63 E7        30.23R                  
HOUMA*         CLOUDY    66  55  68 NE12      30.17R                  
PORT FOURCHON* CLOUDY    66  59  77 NE9G15    30.19R                  

$$

MSZ070-080>082-171700-
SOUTHERN MISSISSIPPI
  
CITY           SKY/WX    TMP DP  RH WIND       PRES   REMARKS
MCCOMB         PTSUNNY   62  51  67 E7        30.22R                  
GULFPORT       CLOUDY    66  55  67 E17       30.20F                  
BILOXI         CLOUDY    63  56  76 E16       30.20F                  
PASCAGOULA     CLOUDY    65  55  70 E12       30.22S                  
STENNIS ARPT*  CLOUDY    64  54  68 E9G16     30.20S                  

$$

COASTAL OBSERVATIONS
LAKE AND NEARSHORE STATIONS
  
STATION/POSITION TIME  TEMP    WIND        PRES    WAVE
                       AIR SEA DIR/SP/G            HT/PER
                 (UTC) (F)     (DEG/KT/KT) (MB)    (FT/S)
PASCAGOULA       1600   62      70/ 17/ 22 1022.5
WAVELAND YACHT   1600   62 64  100/ 18/ 21 1021.5
GRAND ISLE       1600   66 66   70/  8/ 11 1021.6
SOUTHWEST PASS   1600   73 58   70/  5/  6 1021.4
NEW CANAL        1600   60 62   60/ 10/ 11 1022.8
SHELL BEACH      1600   63 61   70/ 20/ 24 1021.3

OFFSHORE STATIONS
  
STATION/POSITION TIME  TEMP    WIND        PRES    WAVE
                       AIR SEA DIR/SP/G            HT/PER
                 (UTC) (F)     (DEG/KT/KT) (MB)    (FT/S)
64 S DAUPHIN ISL 1543   66 71   70/ 25/ 29 1021.4

$$



856 
ASUS44 KLIX 171610
RWRLA 
LOUISIANA WEATHER ROUNDUP
NATIONAL WEATHER SERVICE NEW ORLEANS LA
1100 AM CDT THU APR 17 2014

NOTE: "FAIR" INDICATES FEW OR NO CLOUDS BELOW 12,000 FEET WITH NO
      SIGNIFICANT WEATHER AND/OR OBSTRUCTIONS TO VISIBILITY.
      SKY/WX - SKY CONDITION AND SIGNIFICANT WEATHER.
      TMP - AIR TEMPERATURE.    DP   - DEWPOINT TEMPERATURE.
      RH  - RELATIVE HUMIDITY.  PRES - PRESSURE.
      HX  - HEAT INDEX.         WCI  - WIND CHILL INDEX.

*  THESE STATIONS ARE NOT NWS OR FAA STATIONS AND ARE NOT UNDER
   NWS QUALITY CONTROL.

LAZ040-048-061>063-065-066-069-171700-
SOUTHEAST LOUISIANA
  
CITY           SKY/WX    TMP DP  RH WIND       PRES   REMARKS
N.O. AUDUBON     N/A     67  55  65 MISG        N/A                   
N.O. INTL ARPT CLOUDY    63  55  75 NE9       30.21R                  
N.O. LAKEFRONT CLOUDY    62  55  77 E10       30.21R                  
N.O. DOWNTOWN* CLOUDY    63  52  67 E3        30.21R                  
SLIDELL        CLOUDY    65  54  67 E8        30.19S                  
BATON ROUGE    PTSUNNY   65  51  60 NE10      30.20R                  
BOOTHVILLE     MOSUNNY   69  63  81 NE8       30.17R                  
BELLE CHASSE   PTSUNNY   65  57  75 NE13      30.20R                  
BOGALUSA*        N/A     64  52  66 E9        30.22S                  
GALLIANO*      CLOUDY    67  59  75 N12       30.18R                  
NEW ROADS*     CLOUDY    62  51  66 E10G17    30.21R                  
GONZALES*      CLOUDY    64  54  70 E7        30.20R                  
HAMMOND*       CLOUDY    64  52  63 E7        30.23R                  
HOUMA*         CLOUDY    66  55  68 NE12      30.17R                  
PORT FOURCHON* CLOUDY    66  59  77 NE9G15    30.19R                  

$$

LAZ041-044-053-054-171700-
SOUTHWEST LOUISIANA
  
CITY           SKY/WX    TMP DP  RH WIND       PRES   REMARKS
LAKE CHARLES   CLOUDY    59  51  75 E8        30.18S                  
LAFAYETTE      CLOUDY    62  52  69 NE6       30.19R                  
PATTERSON      CLOUDY    63  54  72 NE6         N/A                   
SALT POINT       N/A     66  55  67 VRB3      30.18R                  
NEW IBERIA     CLOUDY    63  52  67 NE8       30.20R                  
CHENAULT AIRPK CLOUDY    59  52  77 E5        30.19R                  

$$

LAZ027-028-171700-
CENTRAL LOUISIANA
  
CITY           SKY/WX    TMP DP  RH WIND       PRES   REMARKS
FORT POLK      CLOUDY    60  48  64 S8        30.20R                  
ALEXANDRIA INT PTSUNNY   62  49  62 SE6       30.19R                  
ALEXANDRIA     MOSUNNY   65  48  54 E8        30.20R                  

$$

LAZ001-002-171700-
NORTHWEST LOUISIANA
  
CITY           SKY/WX    TMP DP  RH WIND       PRES   REMARKS
SHREVEPORT     CLOUDY    60  49  66 SE9       30.21R                  
BARKSDALE AFB  CLOUDY    60  47  63 E8        30.21R                  
DTN SHREVEPORT CLOUDY    59  48  67 E12       30.21R                  

$$

LAZ014-016-171700-
NORTHEAST LOUISIANA
  
CITY           SKY/WX    TMP DP  RH WIND       PRES   REMARKS
MONROE         PTSUNNY   63  47  55 CALM      30.24S                  
TALLULAH       SUNNY     63  48  58 E8        30.23F                  

$$


Return to Home page


Western Regional Climate Center, wrcc@dri.edu